Wetbulb
55.00 55.12 54.50 53.80 53.33 52.81 52.45 53.21 53.54 53.65 52.55 54.24 55.78 56.87 56.32 54.71 52.76 46.67 42.38 43.46 40.13 36.61 38.47 42.88 43.54 38.80 37.88 37.10 35.26 38.38 38.40 42.45 44.70 40.09 39.45 38.86 39.04 41.83 39.87 43.04 40.28 39.87 40.46 39.14 39.17 38.10 36.71 53.75 53.86 47.84 49.86 52.16 54.20 54.70
54.61 54.58 53.98 53.31 52.72 52.43 52.35 52.62 53.03 53.22 52.66 53.99 55.50 56.54 56.16 55.10 53.91 48.48 40.63 43.66 44.00 39.30 40.40 43.86 46.35 47.49 45.19 43.44 38.78 36.17 37.00 38.38 43.04 42.57 41.88 43.47 40.90 41.55 38.84 37.26 45.66 39.14 43.23 40.94 40.91 45.52 50.15 52.00 51.61 54.61 54.79 54.43 54.55 55.04
54.31 54.20 53.47 52.91 52.29 52.06 51.42 51.67 52.98 53.26 53.57 54.51 55.82 56.56 55.66 54.59 53.73 48.49 41.93 42.05 41.59 38.57 40.04 38.13 40.79 44.65 46.04 48.11 47.54 36.98 36.48 41.03 46.40 47.12 43.65 44.82 41.09 43.29 38.16 39.03 42.26 45.77 46.05 44.57 45.46 47.95 50.55 52.27 54.10 55.21 55.22 54.43 56.46 57.34
54.07 53.84 53.04 52.40 51.88 51.18 51.60 52.65 52.91 53.83 53.90 55.10 56.02 56.04 55.26 53.96 53.10 50.39 42.80 42.53 42.23 39.77 35.62 39.05 44.98 43.99 46.22 43.24 46.09 46.47 41.64 43.34 43.64 42.51 39.87 39.98 43.01 45.83 42.61 42.38 44.22 47.22 46.97 44.21 49.33 49.66 51.53 52.12 53.76 54.22 55.18 57.84 58.23 58.93
53.69 53.20 52.39 51.91 51.38 51.47 52.14 52.06 52.47 53.77 54.20 54.97 55.56 55.50 54.82 53.66 52.33 49.13 44.95 44.99 44.46 40.89 35.96 37.78 42.13 43.79 43.10 42.54 43.25 44.69 42.95 37.64 37.68 38.37 39.77 41.24 43.14 45.44 45.78 45.66 43.82 48.93 45.93 44.62 44.75 49.40 48.90 49.07 53.77 56.62 55.20 55.73 57.36 56.98
52.99 52.38 51.71 51.37 51.03 51.64 51.71 51.85 52.70 53.90 54.39 54.94 55.06 54.80 53.75 52.96 51.81 44.47 39.74 43.47 44.97 44.08 38.27 32.11 37.49 38.36 41.21 42.11 42.29 40.60 42.03 37.64 40.98 40.83 40.83 42.18 43.84 42.84 39.82 39.32 47.39 50.67 50.15 50.67 50.00 53.27 52.07 52.23 54.64 55.81 54.45 54.76 55.48 56.40
52.59 51.83 51.51 51.11 51.27 51.25 51.32 51.86 53.17 53.74 54.22 54.32 53.99 53.49 52.76 51.93 47.20 42.16 39.75 43.01 46.21 42.59 36.14 32.49 33.81 40.64 44.25 43.17 42.64 41.59 41.70 41.82 42.12 40.56 40.55 41.87 42.58 43.52 39.39 37.72 45.18 49.87 51.70 51.68 52.95 52.96 51.68 54.10 51.49 54.27 55.37 58.87 57.54 57.88
51.77 51.22 51.00 51.00 51.01 50.95 51.41 51.85 52.84 53.18 53.82 53.67 52.94 52.37 51.79 51.29 48.20 43.44 45.46 49.24 47.23 40.32 38.81 33.44 34.15 37.27 43.25 42.44 40.03 41.29 40.67 40.63 41.33 41.73 40.17 39.40 39.74 39.56 36.46 41.47 44.95 50.80 51.37 52.01 53.06 54.01 52.51 52.13 55.32 56.14 57.09 56.49 55.81 55.32
50.85 50.66 50.98 50.96 50.76 51.06 51.26 52.12 52.39 52.90 53.20 52.79 52.11 51.31 47.78 44.44 42.60 44.75 51.92 50.82 43.30 40.71 35.71 36.05 33.74 34.66 42.99 40.72 42.95 43.19 41.07 38.30 41.22 40.11 39.50 41.45 37.78 36.75 41.18 41.79 48.50 51.17 49.48 49.37 50.70 52.13 52.78 54.45 54.60 54.47 54.46 54.51 53.57 53.56
50.41 50.40 50.56 50.56 50.45 50.77 51.08 51.85 52.67 52.48 51.60 51.24 47.41 44.47 42.03 44.79 50.12 48.70 41.60 38.96 38.12 37.06 35.14 31.73 34.97 35.10 38.22 39.34 40.20 41.24 41.78 38.33 36.02 39.39 40.60 38.47 38.05 40.63 42.92 46.44 50.18 51.64 51.45 52.01 48.45 49.49 51.93 52.38 52.95 52.14 52.68 53.50 53.72 53.52
49.71 49.56 49.51 49.86 50.44 50.65 51.18 51.91 52.43 50.84 49.51 45.98 40.89 41.99 44.66 51.48 43.16 40.59 37.09 34.71 35.17 34.31 35.00 35.08 36.03 34.42 38.83 35.91 38.05 41.40 41.54 41.63 36.51 39.49 38.03 35.75 37.83 44.85 49.15 50.06 52.19 52.18 51.42 51.65 49.39 51.37 53.32 53.34 52.84 53.23 53.48 54.17 54.27 53.76
47.28 47.64 47.28 46.94 48.10 50.48 51.46 52.17 50.75 48.86 46.26 45.28 45.48 46.36 44.68 41.31 38.27 36.42 35.08 37.03 36.49 36.00 38.51 37.13 38.38 36.95 37.36 40.80 39.25 44.85 43.54 42.85 38.27 45.37 41.97 39.50 44.13 47.47 48.71 49.79 50.30 51.64 52.74 53.24 52.54 52.28 53.80 53.32 53.99 53.97 52.86 52.28 52.41 52.53
48.93 48.65 48.88 49.19 49.77 50.66 52.21 51.10 50.47 50.09 48.61 48.51 45.59 44.60 40.65 38.63 30.93 35.48 34.04 35.71 34.98 39.51 42.07 39.73 37.87 37.90 37.26 39.28 44.07 44.94 42.78 41.31 44.83 41.64 40.47 41.58 47.36 50.98 50.62 51.28 52.00 52.99 54.94 54.71 53.96 53.97 53.99 53.71 54.08 53.15 52.66 53.16 53.05 52.46
47.54 48.32 48.71 49.83 50.90 51.85 51.40 50.86 50.32 49.48 47.64 43.71 41.70 34.72 36.71 35.25 36.49 36.29 37.27 37.47 41.06 42.25 41.46 40.49 38.39 37.45 38.28 40.45 43.90 42.52 44.60 43.86 40.26 36.95 39.42 44.60 46.94 50.64 51.66 52.05 52.17 52.05 53.16 53.44 53.13 52.73 51.83 52.25 52.28 53.11 53.16 52.25 52.83 52.62
47.87 47.98 48.79 49.16 50.09 51.85 51.31 50.60 50.66 49.54 46.03 42.09 40.98 34.81 36.00 39.28 39.82 40.36 41.31 40.63 43.55 43.45 41.13 39.03 38.09 37.21 36.08 42.06 43.33 41.65 40.23 39.05 40.65 41.13 43.82 48.11 49.74 52.84 52.57 52.32 51.13 51.50 51.65 51.15 50.98 50.96 51.21 51.03 50.59 50.41 50.81 51.76 50.27 52.60
47.56 46.31 44.38 48.78 49.84 51.39 50.36 50.02 48.60 48.15 45.74 42.50 40.63 38.35 40.06 38.44 39.92 41.14 40.23 40.27 43.20 42.36 40.64 38.78 36.05 35.53 37.90 40.57 39.86 39.39 38.80 37.20 39.88 44.42 48.99 50.38 50.05 50.79 51.27 51.43 51.64 51.82 51.47 51.37 51.38 51.25 50.19 49.88 49.51 49.12 50.19 50.84 50.91 51.83
45.49 41.59 46.64 48.76 50.16 49.96 49.66 47.23 46.23 43.65 43.08 41.14 37.94 40.46 40.02 40.41 40.09 40.88 41.41 42.46 44.15 42.33 39.07 38.60 34.96 34.10 39.34 38.09 38.23 40.68 39.19 42.49 46.17 47.77 51.85 50.44 51.10 48.72 49.95 50.56 49.90 49.38 48.55 48.38 48.92 49.11 49.16 51.06 51.03 50.54 49.96 50.19 51.18 50.94
40.67 44.11 48.48 50.21 49.69 48.59 46.88 46.90 44.66 42.85 40.06 39.17 36.31 37.58 40.26 42.86 41.58 43.25 42.73 44.43 43.84 43.64 43.20 39.22 40.08 37.58 35.40 36.63 37.47 41.44 43.73 45.89 46.78 46.51 50.64 53.07 51.64 49.72 49.92 48.30 48.99 49.29 48.95 49.11 48.95 48.82 49.61 48.81 48.07 49.68 50.41 50.19 50.65 50.56
43.30 46.12 50.15 50.24 48.52 45.44 42.58 43.59 44.64 39.27 38.30 38.14 38.66 39.15 40.17 41.18 44.23 45.43 44.01 44.75 46.18 46.04 42.88 40.92 38.72 36.89 38.09 42.13 42.27 43.79 45.69 46.90 48.17 49.74 51.42 51.74 53.59 51.64 49.30 49.54 49.90 49.76 49.10 50.80 50.18 49.37 49.85 51.65 50.68 51.27 51.15 50.08 50.48 50.53
48.27 49.22 50.28 50.63 50.16 44.06 41.08 39.08 43.15 38.84 37.08 39.06 39.28 38.36 39.04 39.62 43.40 43.41 44.18 43.91 41.97 41.35 40.65 39.16 39.37 41.17 42.65 44.82 45.66 46.25 46.49 48.36 50.35 50.12 50.82 52.28 53.66 52.22 51.15 50.35 49.16 48.90 49.06 50.01 49.72 46.79 50.00 51.78 51.88 51.96 51.79 51.42 50.50 50.39
45.98 46.89 49.87 48.34 45.20 43.20 40.87 38.21 36.84 38.51 38.67 37.58 38.59 39.32 38.78 38.83 39.36 39.75 40.22 42.74 41.26 39.10 38.57 40.68 42.57 43.42 45.38 46.49 47.50 47.98 48.25 48.56 48.43 49.80 50.43 50.91 52.27 51.10 51.14 51.24 52.06 52.97 51.46 49.41 49.12 49.25 48.24 49.03 48.46 50.26 51.00 50.89 51.11 50.85
43.65 49.48 45.85 46.41 40.94 41.12 39.04 40.60 38.54 39.22 37.89 37.38 37.99 40.76 39.12 38.35 38.95 40.90 42.66 41.16 40.60 41.41 42.38 43.36 43.85 44.39 45.70 45.79 46.85 48.08 49.02 49.87 48.94 50.25 49.10 50.27 51.15 49.38 49.01 50.91 52.35 51.73 52.03 51.11 50.58 50.73 50.01 49.19 51.10 51.60 51.26 51.65 50.15 51.25
47.82 45.51 41.74 42.39 38.91 35.94 34.07 41.89 38.50 39.06 36.93 37.24 39.79 38.30 38.45 39.01 40.91 43.41 39.08 40.26 42.21 44.62 44.67 43.93 44.66 47.65 46.17 47.70 49.61 49.28 50.48 50.07 49.58 50.08 50.76 50.45 49.50 49.01 49.65 50.72 48.73 48.27 47.68 47.72 48.07 48.59 47.91 46.58 48.80 49.73 50.96 51.20 51.65 52.85
47.67 42.16 39.56 36.52 38.86 34.14 39.16 37.91 40.18 38.98 38.79 37.23 36.60 35.35 37.12 39.64 42.48 40.63 38.23 40.39 43.89 45.86 45.12 44.44 46.19 44.23 44.00 45.11 46.35 46.51 47.51 48.03 49.34 50.88 49.67 48.68 49.08 49.08 50.07 49.36 48.83 49.64 50.31 48.68 50.27 51.40 51.23 49.78 49.00 52.37 52.91 51.14 50.28 50.06
33.87 33.22 37.60 34.52 40.49 38.84 38.34 37.55 37.77 37.55 35.96 37.08 37.00 36.87 39.03 41.73 38.67 39.24 40.71 43.30 46.72 46.85 47.23 49.24 47.50 45.64 44.75 44.48 45.01 46.65 48.72 48.24 48.23 49.73 51.71 49.95 49.98 47.75 47.28 48.60 50.33 50.68 49.37 50.26 48.09 48.91 50.98 48.91 52.22 53.13 51.97 50.38 49.53 50.09
28.30 35.06 32.37 35.49 37.66 38.23 38.92 36.33 35.27 35.61 36.65 37.57 38.78 42.03 44.03 42.78 40.07 39.95 43.77 45.76 47.48 48.12 48.34 48.26 48.22 47.39 47.08 47.35 46.96 48.14 50.88 50.32 50.43 49.49 48.63 47.84 47.82 47.03 47.83 47.68 47.70 49.28 51.40 50.13 49.49 49.82 49.12 50.44 49.22 49.71 49.23 49.28 46.19 48.78
30.50 34.71 35.91 39.04 40.67 41.19 40.38 39.50 39.69 38.87 39.08 39.42 41.81 41.50 41.48 36.38 37.51 43.87 47.23 47.91 47.78 50.21 50.52 51.54 50.88 49.87 49.24 48.06 47.73 48.44 49.63 51.51 48.92 49.51 49.19 49.33 49.59 50.30 51.82 49.54 47.57 50.52 51.09 51.69 51.33 50.16 49.34 49.22 48.76 49.43 49.75 50.30 49.88 50.12
35.52 35.50 34.25 36.31 38.17 40.42 39.40 40.46 39.99 39.49 40.42 45.26 43.96 40.27 39.72 42.08 43.13 48.34 49.56 51.37 51.17 51.93 50.77 50.36 50.67 50.88 49.81 51.78 51.70 50.47 48.13 49.25 49.57 50.33 50.60 50.63 51.69 51.42 51.86 52.56 51.94 46.10 49.96 51.52 51.83 51.30 50.02 49.97 49.74 50.24 50.52 48.89 49.07 50.28
37.75 40.15 41.60 39.14 40.87 41.07 41.54 42.36 42.16 44.71 46.42 45.92 44.10 44.64 46.20 49.81 51.53 51.23 51.47 49.86 50.98 50.99 48.14 49.67 51.26 50.16 49.93 51.15 51.64 48.93 48.81 48.97 48.12 47.28 46.33 45.42 45.63 47.38 49.64 50.96 51.47 51.82 51.79 51.63 46.92 47.62 51.04 50.83 50.38 50.53 50.01 49.57 50.26 51.01
37.99 41.75 41.48 40.04 38.67 38.03 42.99 45.73 46.81 47.91 49.06 48.96 47.61 47.65 49.59 49.93 51.64 52.83 51.77 52.34 50.90 49.74 50.33 50.42 50.85 48.51 47.85 49.60 50.30 51.03 51.76 51.44 50.18 47.35 45.91 46.25 47.59 49.71 49.84 48.83 48.87 49.54 50.23 50.71 50.74 50.56 46.35 49.51 49.18 51.56 50.96 51.31 51.01 51.01
44.99 43.72 43.78 42.84 41.44 44.37 46.42 47.94 48.38 49.32 47.58 46.20 47.43 47.52 46.76 47.87 48.37 49.12 52.25 52.72 52.73 52.50 51.41 51.07 51.63 50.29 49.58 48.90 47.40 47.81 48.55 51.12 50.14 48.83 46.71 45.19 44.60 44.32 44.67 45.33 45.76 46.14 45.58 45.84 45.50 45.32 44.71 44.65 45.09 45.75 48.17 44.07 44.13 43.16
43.46 41.63 42.86 41.41 42.76 47.21 49.18 47.47 46.73 46.19 46.60 45.31 45.06 46.38 46.72 44.78 44.98 49.39 53.02 52.84 50.89 49.64 48.79 50.62 50.90 49.07 50.43 50.25 51.89 50.45 44.04 45.51 44.48 44.04 44.58 44.28 44.04 44.61 44.86 45.20 45.50 45.53 44.68 44.24 43.49 42.70 42.61 41.83 40.97 40.97 39.95 39.71 39.93 39.96
43.41 44.05 44.53 43.46 43.97 44.37 46.35 47.32 46.69 45.30 45.32 45.20 46.16 47.52 47.56 47.51 45.04 49.64 53.93 51.77 49.92 51.10 48.56 46.85 48.06 46.49 46.62 46.97 46.80 47.78 44.82 45.31 41.88 37.78 37.54 37.46 37.30 39.66 43.04 43.90 44.71 44.26 43.16 42.13 41.25 40.85 40.26 39.50 38.99 39.00 38.57 38.18 38.13 38.10
MSLP
1015.42 1015.52 1015.85 1016.17 1016.74 1017.03 1017.28 1017.44 1017.51 1017.58 1017.65 1017.73 1017.85 1017.99 1018.30 1018.75 1018.93 1019.61 1019.62 1019.64 1019.78 1019.75 1017.79 1016.57 1016.20 1015.93 1015.83 1015.85 1015.80 1014.84 1013.99 1013.39 1012.95 1013.16 1013.41 1013.18 1012.86 1012.20 1011.84 1011.25 1011.05 1010.99 1010.83 1010.32 1009.58 1009.01 1009.08 1008.19 1007.51 1007.76 1007.68 1007.30 1007.05 1007.03
1014.78 1014.91 1015.26 1015.72 1016.12 1016.47 1016.75 1017.10 1017.24 1017.23 1017.34 1017.37 1017.52 1017.71 1018.05 1018.53 1018.73 1019.06 1019.91 1019.30 1019.34 1019.73 1017.40 1015.85 1014.98 1014.36 1014.37 1014.53 1015.01 1015.17 1014.93 1014.55 1013.70 1013.77 1013.80 1013.48 1013.11 1012.74 1012.37 1011.99 1011.28 1011.17 1010.77 1010.64 1010.40 1009.68 1009.16 1008.85 1008.78 1007.82 1007.27 1007.07 1006.97 1006.52
1014.09 1014.27 1014.67 1015.15 1015.65 1016.06 1016.31 1016.45 1016.69 1016.92 1017.02 1017.15 1017.17 1017.46 1017.77 1018.26 1018.54 1018.93 1019.61 1019.53 1019.56 1019.12 1016.96 1015.61 1013.60 1012.77 1012.84 1013.13 1013.61 1014.85 1014.26 1013.37 1013.29 1013.07 1013.43 1013.34 1013.18 1012.56 1012.22 1011.74 1011.07 1010.67 1010.75 1010.61 1010.38 1009.71 1009.47 1009.24 1008.70 1007.99 1007.28 1006.81 1006.64 1006.37
1013.43 1013.62 1014.07 1014.60 1015.12 1015.61 1016.09 1016.03 1016.01 1016.38 1016.57 1016.74 1016.97 1017.25 1017.68 1018.00 1018.36 1018.88 1019.40 1019.37 1019.47 1019.31 1018.52 1014.95 1012.90 1012.32 1011.75 1012.01 1012.51 1012.36 1012.28 1012.72 1012.95 1013.03 1013.27 1013.14 1012.77 1011.87 1011.34 1010.84 1010.87 1010.47 1010.49 1010.50 1010.33 1009.85 1009.67 1009.08 1008.63 1008.09 1007.74 1007.22 1007.01 1007.02
1012.75 1012.99 1013.54 1014.11 1014.80 1015.16 1015.57 1015.61 1015.75 1015.81 1016.15 1016.56 1016.79 1017.10 1017.46 1017.83 1018.29 1018.71 1018.94 1018.73 1018.77 1019.25 1018.73 1016.06 1013.72 1011.41 1011.22 1011.34 1011.60 1011.92 1012.57 1012.98 1013.42 1013.49 1013.51 1012.97 1011.86 1011.53 1010.75 1010.55 1009.94 1009.64 1009.62 1009.79 1009.61 1009.16 1009.18 1008.69 1008.13 1008.22 1008.07 1007.65 1006.97 1006.82
1012.02 1012.41 1013.09 1013.71 1014.38 1014.66 1015.14 1015.23 1015.53 1015.54 1015.70 1016.26 1016.59 1016.95 1017.34 1017.79 1018.23 1018.92 1018.66 1018.34 1018.47 1018.79 1018.94 1017.27 1013.92 1011.91 1011.03 1010.79 1010.94 1011.33 1011.63 1012.59 1012.86 1013.15 1012.76 1011.88 1010.82 1010.71 1010.74 1010.39 1008.82 1008.57 1008.63 1008.50 1008.55 1008.22 1008.58 1008.47 1007.96 1007.78 1007.94 1007.59 1007.39 1007.10
1011.37 1012.00 1012.63 1013.39 1013.98 1014.30 1014.78 1015.08 1015.11 1015.47 1015.54 1016.00 1016.42 1016.96 1017.34 1017.80 1018.23 1018.42 1018.22 1018.14 1018.17 1018.58 1018.75 1017.67 1015.34 1012.33 1010.80 1010.18 1010.30 1010.71 1011.09 1011.33 1011.74 1012.16 1012.08 1011.50 1010.81 1010.43 1010.21 1009.87 1008.16 1008.12 1007.92 1008.25 1008.22 1008.37 1008.66 1008.43 1007.95 1007.65 1007.65 1007.37 1007.28 1007.43
1010.89 1011.60 1012.37 1013.00 1013.81 1014.11 1014.61 1014.59 1014.97 1015.33 1015.68 1015.92 1016.44 1017.08 1017.50 1017.89 1018.10 1017.76 1016.63 1016.80 1017.90 1018.58 1018.65 1018.20 1015.99 1013.63 1011.15 1011.07 1010.83 1010.64 1010.89 1011.18 1011.18 1011.02 1011.25 1011.14 1010.72 1010.44 1009.88 1008.30 1007.78 1007.78 1007.89 1008.18 1008.25 1008.30 1008.37 1008.33 1008.34 1008.03 1007.98 1008.17 1008.10 1008.36
1010.48 1011.31 1012.15 1012.85 1013.38 1013.92 1014.17 1014.52 1014.91 1015.24 1015.77 1016.12 1016.66 1017.36 1017.75 1018.02 1017.72 1016.80 1016.38 1016.46 1017.26 1018.18 1018.34 1018.08 1016.77 1014.45 1011.90 1011.56 1011.19 1010.84 1010.78 1011.24 1010.77 1010.68 1010.44 1010.56 1010.29 1009.91 1008.29 1007.73 1007.33 1007.21 1007.25 1007.77 1007.95 1008.02 1008.07 1008.42 1008.85 1008.70 1008.58 1008.68 1008.64 1008.86
1010.26 1011.13 1011.94 1012.63 1013.19 1013.64 1014.00 1014.41 1014.86 1015.40 1015.77 1016.44 1016.94 1017.44 1017.36 1016.79 1016.21 1016.47 1016.62 1017.09 1017.55 1017.82 1017.95 1017.55 1016.01 1014.79 1013.30 1012.49 1011.65 1011.42 1011.04 1010.79 1010.70 1009.92 1009.83 1009.82 1009.57 1008.21 1007.44 1007.23 1006.81 1007.00 1007.07 1007.43 1007.93 1008.43 1008.59 1008.89 1009.19 1009.08 1008.87 1008.94 1009.08 1009.29
1010.27 1011.14 1011.83 1012.49 1013.02 1013.51 1013.89 1014.30 1015.01 1015.63 1016.26 1016.50 1016.63 1016.65 1016.27 1016.00 1016.41 1016.86 1017.14 1017.57 1017.58 1017.58 1016.80 1015.62 1015.00 1014.41 1012.94 1012.79 1012.14 1011.58 1011.09 1010.65 1010.42 1010.11 1009.94 1009.87 1009.20 1007.86 1007.05 1006.90 1006.81 1007.01 1007.17 1007.32 1007.39 1007.36 1007.62 1008.21 1008.82 1009.03 1009.37 1009.55 1009.80 1010.11
1010.55 1011.38 1012.01 1012.54 1012.86 1013.31 1014.00 1014.49 1014.93 1015.30 1015.67 1015.52 1015.60 1015.93 1016.12 1016.40 1016.89 1017.18 1016.97 1016.71 1016.49 1015.56 1014.63 1014.23 1013.53 1013.38 1012.69 1012.31 1012.20 1011.37 1011.10 1010.64 1010.31 1010.05 1009.89 1009.44 1008.45 1007.77 1007.23 1006.81 1006.93 1007.03 1007.01 1007.07 1007.05 1007.49 1008.08 1008.55 1008.89 1009.32 1009.69 1009.85 1009.93 1010.01
1010.70 1011.39 1012.07 1012.59 1013.13 1013.38 1013.72 1014.33 1014.65 1014.89 1015.30 1015.54 1015.78 1015.95 1016.17 1016.81 1017.07 1016.90 1016.32 1015.60 1014.90 1013.62 1013.09 1012.90 1012.88 1012.53 1012.35 1012.12 1011.90 1011.43 1011.08 1010.82 1010.12 1009.93 1009.67 1009.14 1008.28 1007.88 1007.96 1007.67 1007.54 1007.54 1007.51 1007.64 1007.94 1008.11 1008.54 1009.09 1009.37 1009.68 1010.00 1010.06 1010.12 1010.46
1011.31 1011.64 1012.24 1012.73 1013.15 1013.40 1013.81 1014.41 1015.02 1015.32 1015.26 1015.60 1015.79 1016.37 1016.49 1016.46 1016.18 1015.54 1014.95 1014.29 1013.25 1012.67 1012.58 1012.39 1012.36 1012.27 1012.19 1012.05 1011.68 1011.38 1010.96 1010.99 1010.61 1010.24 1009.66 1009.17 1008.83 1008.57 1008.49 1008.57 1008.16 1008.32 1008.19 1008.37 1008.72 1009.01 1009.25 1009.45 1009.68 1009.79 1010.06 1010.44 1010.62 1010.59
1011.66 1012.20 1012.54 1012.92 1013.12 1013.36 1014.11 1014.91 1015.18 1015.31 1015.60 1015.91 1015.96 1016.09 1016.06 1015.50 1014.99 1014.37 1013.96 1013.58 1012.41 1011.90 1011.90 1011.98 1012.13 1012.12 1012.19 1011.90 1011.61 1011.35 1011.25 1011.19 1011.01 1010.49 1009.74 1008.96 1008.80 1008.17 1008.83 1009.01 1008.90 1009.01 1009.13 1009.31 1009.43 1009.53 1009.59 1009.82 1010.05 1010.08 1010.15 1010.33 1010.38 1010.30
1011.98 1012.57 1013.21 1013.39 1013.71 1013.94 1014.55 1015.08 1015.35 1015.55 1015.96 1016.07 1015.91 1015.79 1015.41 1015.21 1014.64 1014.01 1013.42 1012.87 1011.82 1011.48 1011.53 1011.60 1012.06 1012.13 1012.17 1012.05 1011.90 1011.70 1011.64 1011.48 1011.50 1011.25 1010.43 1009.89 1009.31 1008.88 1008.98 1009.26 1009.22 1009.25 1009.43 1009.59 1009.71 1009.82 1009.95 1010.11 1010.27 1010.35 1010.43 1010.47 1010.51 1010.38
1012.18 1012.51 1013.00 1013.42 1013.89 1014.31 1014.80 1015.25 1015.66 1016.39 1016.15 1016.00 1016.02 1015.70 1015.63 1015.05 1014.60 1013.90 1013.22 1012.14 1011.22 1011.38 1011.92 1011.96 1012.18 1012.21 1012.31 1012.28 1012.23 1012.07 1012.06 1011.92 1011.72 1011.33 1010.68 1010.69 1010.02 1009.65 1009.74 1009.57 1009.46 1009.44 1009.58 1009.65 1009.69 1009.88 1010.06 1010.06 1010.20 1010.39 1010.44 1010.21 1010.22 1010.20
1012.31 1012.57 1012.91 1013.42 1013.86 1014.61 1015.34 1015.73 1016.12 1016.24 1016.24 1016.13 1016.22 1015.69 1015.26 1014.55 1014.00 1013.24 1012.52 1011.78 1011.46 1011.43 1011.60 1011.83 1012.00 1012.40 1012.76 1012.78 1012.79 1012.72 1012.34 1012.02 1011.82 1011.49 1010.95 1010.72 1011.57 1009.79 1009.52 1009.60 1009.49 1009.43 1009.55 1009.73 1009.84 1009.93 1009.97 1010.04 1010.02 1009.80 1009.75 1009.92 1010.03 1010.04
1012.53 1012.84 1013.45 1013.76 1013.94 1014.60 1015.58 1016.23 1016.28 1016.38 1016.26 1016.09 1015.65 1015.23 1014.90 1014.17 1013.12 1012.45 1012.33 1011.82 1011.42 1011.43 1011.82 1012.09 1012.51 1012.96 1013.14 1012.88 1012.82 1012.69 1012.38 1012.01 1011.55 1011.52 1011.29 1011.29 1011.45 1010.72 1009.46 1009.33 1009.46 1009.63 1009.75 1009.84 1009.89 1009.88 1009.71 1009.45 1009.34 1009.38 1009.63 1009.92 1009.82 1009.81
1012.96 1013.52 1013.85 1014.11 1013.95 1014.46 1015.64 1016.39 1016.44 1016.35 1016.00 1015.28 1014.95 1014.63 1014.20 1013.56 1012.95 1012.70 1012.33 1012.11 1011.92 1012.07 1012.48 1012.72 1012.88 1012.76 1012.78 1012.39 1012.22 1012.01 1012.07 1011.92 1011.39 1011.16 1011.40 1011.69 1011.31 1010.73 1010.05 1009.78 1009.82 1009.77 1009.74 1009.65 1009.59 1009.43 1009.38 1009.21 1009.00 1008.91 1008.98 1009.24 1009.50 1009.49
1013.99 1014.34 1014.53 1014.53 1014.71 1014.88 1015.31 1015.85 1016.09 1015.86 1015.30 1014.91 1014.15 1014.03 1013.53 1013.10 1012.83 1012.52 1012.42 1012.40 1012.63 1012.84 1012.91 1012.57 1012.53 1012.24 1012.08 1011.96 1011.98 1011.76 1011.65 1011.61 1011.57 1011.27 1011.04 1010.56 1010.23 1010.43 1010.23 1009.75 1009.54 1009.62 1009.69 1009.60 1009.75 1009.57 1009.46 1009.41 1009.33 1009.06 1009.11 1009.09 1008.97 1008.96
1014.33 1014.52 1014.91 1014.91 1015.12 1015.27 1015.41 1015.22 1015.28 1014.88 1014.83 1014.20 1013.78 1013.38 1013.37 1013.29 1012.98 1012.71 1012.63 1012.78 1012.82 1012.43 1012.28 1012.22 1012.08 1012.10 1012.21 1012.08 1011.89 1011.48 1011.50 1011.06 1011.03 1010.92 1010.59 1010.33 1010.38 1010.01 1009.75 1009.43 1009.51 1009.65 1009.60 1009.67 1009.63 1009.61 1009.56 1009.37 1009.15 1008.99 1008.95 1008.85 1008.82 1008.70
1014.52 1014.68 1015.05 1015.24 1015.52 1015.68 1015.37 1014.84 1014.82 1014.46 1014.44 1013.83 1013.45 1013.23 1013.19 1013.02 1012.81 1012.70 1012.73 1012.62 1012.19 1011.75 1011.71 1011.86 1011.87 1011.81 1012.00 1011.74 1011.64 1011.52 1011.46 1011.21 1010.67 1010.43 1010.34 1009.99 1010.21 1010.01 1009.83 1009.69 1009.55 1009.63 1009.75 1009.61 1009.61 1009.59 1009.58 1009.24 1009.11 1009.04 1008.88 1008.80 1008.59 1008.42
1014.51 1015.03 1015.47 1015.66 1015.68 1015.49 1015.00 1014.70 1014.27 1013.97 1013.65 1013.47 1013.39 1013.21 1013.10 1012.99 1012.77 1012.78 1012.73 1012.29 1011.78 1011.63 1011.61 1011.67 1011.75 1012.02 1011.94 1011.72 1011.69 1011.31 1010.92 1010.70 1010.40 1009.93 1009.79 1010.02 1010.01 1010.15 1009.88 1009.85 1009.61 1009.42 1009.31 1009.32 1009.27 1009.32 1009.25 1009.19 1009.01 1008.87 1008.74 1008.74 1008.68 1008.63
1015.38 1015.76 1015.89 1015.68 1015.35 1015.21 1014.54 1014.14 1013.79 1013.65 1013.46 1013.33 1013.22 1013.14 1012.98 1012.86 1012.87 1012.76 1012.59 1011.96 1011.46 1011.33 1011.34 1011.32 1011.45 1011.58 1011.64 1011.47 1011.40 1010.89 1010.32 1010.37 1010.12 1010.22 1010.03 1009.92 1009.96 1010.08 1009.85 1009.82 1009.52 1009.28 1009.12 1009.15 1009.13 1009.14 1009.09 1009.04 1008.79 1008.61 1008.54 1008.72 1008.80 1008.61
1015.73 1015.62 1015.63 1015.23 1014.97 1014.70 1014.04 1013.63 1013.52 1013.35 1013.12 1013.09 1013.05 1012.94 1012.91 1012.86 1012.79 1012.30 1011.82 1011.22 1011.40 1010.71 1010.89 1010.98 1011.07 1011.09 1011.03 1011.16 1010.94 1010.59 1010.04 1009.80 1009.63 1009.99 1010.21 1009.95 1009.83 1009.85 1009.93 1010.03 1009.88 1009.40 1009.01 1009.04 1009.23 1009.29 1009.20 1008.93 1008.85 1008.66 1008.42 1008.17 1008.17 1008.33
1016.00 1015.52 1015.22 1015.01 1014.77 1014.34 1013.81 1013.44 1013.06 1012.90 1012.90 1012.85 1012.82 1013.08 1013.14 1012.94 1012.48 1011.86 1011.18 1011.03 1011.03 1010.59 1010.30 1010.34 1010.52 1010.37 1010.07 1010.22 1010.40 1010.09 1009.65 1009.68 1009.94 1009.78 1009.86 1009.78 1009.60 1009.50 1009.46 1009.62 1009.65 1009.50 1009.36 1009.36 1009.33 1009.28 1009.21 1009.07 1008.91 1008.68 1008.61 1008.33 1008.00 1007.67
1016.06 1015.56 1015.14 1014.85 1014.57 1014.14 1013.76 1013.20 1012.81 1012.81 1012.93 1012.78 1012.91 1012.73 1012.63 1011.95 1012.10 1011.57 1011.15 1010.67 1010.49 1010.27 1010.06 1009.84 1009.62 1009.63 1009.78 1009.64 1009.66 1010.02 1010.14 1010.04 1009.93 1009.87 1009.83 1009.96 1009.87 1009.97 1009.92 1009.82 1009.65 1009.41 1009.28 1009.09 1008.95 1008.84 1008.78 1008.82 1008.71 1008.54 1008.42 1008.20 1007.85 1007.54
1015.51 1014.95 1014.59 1014.13 1013.93 1013.72 1013.30 1012.73 1012.62 1012.19 1012.25 1012.21 1011.97 1011.81 1012.08 1012.01 1012.14 1011.90 1011.54 1011.11 1010.68 1010.76 1010.87 1010.60 1010.47 1010.22 1010.10 1010.09 1010.35 1010.35 1010.16 1010.14 1010.45 1010.55 1010.70 1010.86 1010.89 1010.45 1010.09 1009.90 1009.67 1009.37 1009.13 1008.89 1008.57 1008.53 1008.28 1008.17 1008.04 1007.95 1007.98 1008.00 1007.60 1007.66
1014.51 1014.34 1013.93 1013.57 1013.56 1012.99 1012.40 1012.25 1011.77 1011.26 1011.55 1011.47 1011.67 1012.12 1012.27 1012.44 1012.39 1012.10 1011.93 1011.77 1011.65 1011.52 1011.40 1011.24 1011.17 1011.04 1011.05 1010.80 1010.86 1010.93 1010.90 1010.85 1010.72 1011.06 1011.23 1011.31 1011.41 1010.98 1010.60 1010.21 1009.84 1009.36 1008.93 1008.64 1008.48 1008.27 1007.93 1007.82 1007.84 1007.94 1008.16 1008.11 1008.15 1008.04
1013.45 1013.32 1013.19 1012.93 1012.42 1011.65 1011.62 1011.51 1011.53 1011.44 1011.63 1011.95 1012.11 1012.35 1012.92 1013.11 1012.99 1012.83 1012.64 1012.55 1012.41 1012.28 1012.15 1012.03 1011.83 1011.65 1011.45 1011.37 1011.38 1011.39 1011.61 1011.55 1011.36 1011.35 1011.40 1011.46 1011.42 1011.15 1010.78 1010.49 1010.15 1009.81 1009.55 1009.41 1009.32 1009.23 1009.12 1009.05 1009.01 1008.94 1008.85 1009.05 1008.99 1008.93
1012.89 1012.77 1012.28 1012.04 1011.98 1011.71 1011.50 1011.79 1011.95 1012.29 1012.72 1012.96 1013.29 1013.20 1013.27 1013.58 1013.75 1013.46 1013.10 1012.98 1012.77 1012.65 1012.69 1012.46 1012.27 1012.28 1011.96 1011.83 1011.75 1011.84 1011.95 1012.09 1012.09 1011.96 1011.78 1011.73 1011.63 1011.39 1011.17 1010.95 1010.72 1010.54 1010.42 1010.36 1010.33 1010.25 1010.20 1010.21 1010.20 1010.15 1010.17 1010.08 1009.96 1009.83
1011.89 1011.56 1011.31 1011.72 1011.77 1011.87 1012.11 1012.08 1012.76 1013.26 1013.41 1013.67 1014.04 1014.19 1014.27 1014.68 1014.80 1014.57 1013.95 1013.73 1013.69 1013.44 1013.25 1013.03 1013.00 1012.87 1012.62 1012.47 1012.49 1012.52 1012.47 1012.50 1012.43 1012.27 1012.16 1012.10 1012.03 1011.93 1011.79 1011.63 1011.45 1011.33 1011.25 1011.28 1011.22 1011.19 1011.23 1011.17 1011.14 1011.07 1011.02 1010.93 1010.78 1010.61
Wind_Speed
16 16 16 14 14 12 10 10 9 9 10 10 8 11 12 11 10 4 3 4 4 3 7 8 5 5 2 2 3 5 7 4 4 4 1 1 1 3 4 3 3 1 1 2 1 3 0 6 5 1 4 2 1 1
18 17 16 15 13 11 9 9 9 9 11 11 9 10 12 10 10 7 1 2 2 3 8 4 12 14 14 13 5 1 4 2 5 2 1 0 2 0 2 3 1 3 3 2 3 2 2 5 4 6 4 3 2 2
18 17 16 14 12 10 11 11 9 9 10 9 10 11 12 11 10 7 2 2 1 2 7 2 7 7 6 17 12 5 4 7 3 5 3 2 3 3 2 5 2 2 2 1 2 2 3 5 6 1 2 2 2 5
18 18 17 15 13 11 12 11 9 9 10 9 9 12 12 10 9 8 2 1 2 1 2 9 4 9 6 5 13 20 6 3 2 2 0 2 2 4 3 4 4 3 5 3 2 3 5 6 6 1 7 4 5 4
18 18 17 16 14 12 12 9 9 9 10 9 10 12 11 9 8 3 2 4 3 3 4 8 11 9 5 8 12 15 12 4 1 2 1 4 2 1 2 1 3 6 7 5 6 7 5 6 5 2 4 5 3 4
19 19 18 15 13 12 10 9 9 10 9 10 11 12 11 9 7 1 3 1 4 4 1 6 5 7 5 7 8 8 12 4 4 5 4 4 4 3 0 2 6 3 4 3 1 6 3 4 6 2 2 4 5 1
20 19 18 16 13 11 10 10 9 9 9 10 11 11 10 10 3 3 4 2 5 3 1 6 7 7 5 4 1 3 4 4 5 3 3 3 4 3 2 3 7 4 6 3 1 4 5 3 3 4 4 3 3 5
21 20 19 16 14 11 11 9 9 9 7 11 12 11 9 6 2 4 4 12 6 1 1 2 7 6 4 3 2 0 3 1 2 4 2 2 2 2 3 9 5 5 5 5 6 6 6 3 3 5 5 3 7 4
22 20 18 16 12 11 10 9 10 9 11 14 14 11 3 1 2 3 4 12 2 4 2 1 3 5 6 3 2 3 2 1 1 3 4 5 1 4 8 6 5 7 6 7 2 6 3 7 5 4 5 4 6 4
22 20 17 15 12 10 11 10 10 11 17 17 3 2 2 4 5 5 4 4 4 3 1 4 1 5 2 3 4 2 1 3 1 5 3 4 5 6 7 7 5 4 7 6 6 4 5 5 5 5 4 3 5 5
21 18 15 13 11 8 9 11 14 18 9 1 3 4 3 2 3 2 1 2 2 3 4 6 6 4 2 2 3 1 2 2 2 2 2 1 4 5 5 3 6 6 4 6 5 6 9 9 10 7 5 5 5 5
21 18 16 13 8 6 8 15 22 6 4 6 4 2 2 3 3 1 3 2 4 6 4 4 5 6 3 2 1 2 1 3 4 3 0 2 5 3 3 6 5 2 4 4 4 8 8 7 6 5 5 5 5 5
18 17 16 16 14 13 14 24 16 5 5 2 2 2 3 0 2 5 5 4 3 3 3 3 2 2 2 1 1 1 3 4 3 2 2 5 4 1 4 3 6 5 9 9 9 7 8 6 6 5 6 4 3 4
14 13 13 12 9 13 20 20 8 3 2 2 3 2 3 3 5 5 4 3 5 3 2 1 2 2 0 1 1 2 2 3 3 1 3 2 2 3 2 3 5 5 7 8 8 7 6 6 4 2 0 2 2 2
18 15 12 9 7 13 18 10 4 2 3 2 3 4 5 5 4 5 4 4 6 4 1 1 1 2 1 0 1 3 1 3 3 4 3 4 4 12 6 3 6 6 6 6 4 4 2 2 1 1 2 3 2 1
18 13 3 12 9 15 17 7 3 2 1 2 2 1 2 1 3 3 3 4 3 2 1 3 2 2 1 1 1 3 2 2 4 4 7 3 3 4 6 5 5 6 6 5 4 3 3 3 4 4 3 3 4 3
7 2 11 13 14 19 11 4 3 2 3 2 2 2 3 4 5 4 3 4 2 3 2 3 0 0 1 2 1 2 1 3 3 5 7 6 3 7 5 5 6 6 5 4 2 3 3 4 4 4 4 3 5 5
3 6 18 18 12 7 2 3 2 1 3 2 1 4 2 3 4 4 4 3 3 2 2 1 3 2 1 1 3 3 3 4 3 3 5 12 12 5 5 6 4 4 4 3 1 2 2 4 5 5 4 3 3 3
7 11 20 12 5 5 3 1 1 1 4 2 4 3 3 4 5 5 4 4 0 2 3 2 3 1 2 3 3 3 3 2 2 3 5 6 14 10 5 3 2 2 3 0 2 3 5 6 5 4 4 3 4 4
17 19 14 7 3 3 4 0 1 2 3 4 2 3 3 4 2 3 3 2 2 2 3 0 3 4 5 4 5 4 3 2 1 2 0 5 6 7 3 2 2 2 1 2 3 3 2 2 3 4 5 5 4 5
9 3 2 5 3 3 3 4 2 4 3 3 3 3 3 2 2 1 1 1 3 2 3 3 3 4 4 3 2 3 4 1 0 0 2 4 4 2 4 3 3 2 2 1 1 4 4 3 4 4 3 4 4 4
3 6 2 2 2 2 0 3 3 2 1 3 3 2 1 1 1 1 0 1 3 4 4 3 3 3 3 4 5 4 4 2 2 2 7 7 6 4 2 2 3 1 1 1 2 2 3 4 4 4 2 5 4 4
6 3 2 2 3 3 6 1 1 2 2 3 2 1 2 1 2 1 1 3 4 3 3 2 3 2 3 4 5 4 1 6 5 2 3 3 3 2 1 2 2 2 1 2 1 2 3 5 5 4 4 5 4 3
3 2 3 3 2 3 2 2 2 2 1 1 1 2 1 2 2 2 3 3 3 0 1 2 1 1 2 3 4 3 3 1 4 4 1 4 2 1 0 2 2 3 3 3 2 2 3 3 5 4 4 3 2 3
5 3 3 2 2 2 2 2 1 1 1 1 3 3 2 1 1 1 2 3 2 2 3 2 1 3 3 3 4 4 5 5 3 1 2 2 2 2 3 3 3 3 1 1 2 1 3 3 3 4 4 3 5 6
2 3 4 4 2 2 2 3 3 3 2 2 2 1 2 3 2 3 3 1 2 3 2 4 4 2 3 4 2 3 4 2 3 2 2 1 3 3 2 1 1 3 0 2 2 3 4 4 3 5 4 5 7 5
2 2 1 1 1 2 2 2 1 1 2 1 2 2 2 1 3 4 3 1 1 3 2 2 4 5 3 2 4 5 5 1 3 3 2 1 1 2 0 0 3 3 4 4 3 3 4 5 5 5 5 4 4 3
2 2 2 2 1 2 2 3 1 1 2 2 2 4 5 3 1 3 2 2 3 2 3 4 3 2 1 2 2 2 3 2 4 2 2 3 3 4 4 3 3 8 5 5 5 4 3 4 5 6 5 5 3 2
3 2 2 2 0 0 2 2 3 4 5 6 4 2 2 3 4 3 4 4 5 4 3 4 6 2 4 5 4 3 3 4 3 5 5 4 5 5 4 4 4 4 4 5 8 7 7 6 6 5 4 5 2 1
4 3 2 2 1 4 5 6 4 2 2 2 3 3 4 4 5 5 4 4 4 5 4 4 4 5 4 4 3 5 5 4 5 4 3 3 3 5 5 6 6 6 5 5 5 6 10 6 6 4 3 3 3 3
3 3 3 3 4 3 3 1 3 7 4 5 4 8 4 2 2 4 6 5 3 3 6 5 5 4 5 6 5 5 5 5 6 6 3 1 3 4 5 5 5 5 6 7 7 7 6 7 6 7 8 10 10 8
5 6 4 3 3 2 5 4 4 5 4 5 5 4 5 5 6 8 7 7 7 9 8 6 5 5 4 3 4 4 6 4 5 5 6 4 4 5 5 5 5 6 6 7 7 6 8 8 7 7 7 9 8 8
3 1 4 5 4 5 4 5 4 4 6 6 5 6 5 3 3 3 5 4 3 4 5 4 3 4 7 7 6 4 5 3 5 7 7 9 9 8 5 4 4 5 6 6 6 6 8 8 7 7 7 8 8 8
Wind_Direction
235 220 209 202 214 223 233 238 240 254 241 238 249 208 197 190 165 134 257 194 134 216 273 214 223 191 290 173 213 294 355 335 357 46 71 282 215 299 328 300 305 254 31 315 318 79 73 13 332 152 229 282 119 279
237 217 204 203 206 213 222 239 241 253 243 225 238 209 188 188 170 126 277 280 121 179 251 227 234 233 212 205 160 274 215 330 235 88 247 221 268 285 182 309 81 328 188 206 182 179 323 322 271 292 222 141 54 40
235 211 198 196 202 207 223 230 233 249 222 235 228 199 181 181 174 149 200 275 47 287 289 333 244 264 221 228 197 174 264 209 246 191 179 214 246 137 194 244 260 231 168 160 24 298 287 297 293 301 354 101 129 141
236 202 192 187 191 209 229 221 217 222 227 216 205 185 182 177 181 159 174 196 98 142 285 283 314 278 193 155 187 208 216 17 69 59 111 246 210 178 227 233 194 214 129 158 272 283 310 273 249 303 327 303 128 108
228 195 184 183 192 209 219 218 220 206 215 213 195 181 175 174 184 175 205 223 188 137 253 281 304 271 237 194 203 209 220 211 85 0 285 248 231 148 269 344 260 183 181 167 218 204 181 240 269 148 305 295 173 124
209 185 180 182 190 197 213 212 222 196 202 197 184 175 170 164 142 98 335 355 177 158 55 306 289 292 305 194 202 188 203 167 179 158 225 261 261 108 342 239 265 204 196 172 189 193 177 292 291 278 308 290 255 170
188 176 173 178 191 194 200 209 196 190 182 173 170 165 157 160 129 176 191 190 129 98 115 307 311 276 300 345 34 110 140 185 155 192 202 223 265 145 189 226 258 205 191 121 58 86 314 262 300 278 193 39 75 61
177 172 171 174 184 185 195 184 182 174 182 166 153 142 141 153 321 315 251 217 154 124 98 282 276 327 2 326 339 83 138 80 240 205 77 204 335 47 250 247 270 144 154 151 182 205 223 313 55 70 75 89 68 43
169 166 168 170 169 175 172 166 171 164 162 133 122 125 112 166 219 240 66 117 87 135 238 211 254 274 348 326 276 345 79 131 287 204 219 116 278 233 229 216 202 195 171 139 162 183 142 134 139 102 111 84 91 60
162 162 159 159 161 166 160 165 152 153 128 125 114 144 229 213 207 103 18 42 16 323 50 230 244 268 27 359 302 343 51 226 211 243 99 152 246 245 247 231 242 182 177 126 104 110 108 119 170 191 166 137 134 157
145 143 147 152 155 156 162 158 150 129 117 140 151 195 230 102 73 45 135 154 182 252 212 234 193 221 275 180 262 239 307 282 301 286 167 210 272 258 328 171 163 191 213 215 235 194 171 164 175 152 167 152 140 149
152 158 158 157 160 156 185 160 147 149 177 189 158 117 87 66 54 126 224 257 199 232 215 199 219 194 260 132 100 309 316 13 266 319 344 266 260 319 3 74 61 83 135 98 137 137 134 148 149 157 153 162 175 197
148 154 161 162 175 193 183 159 165 138 126 80 103 103 81 153 75 199 210 245 247 227 225 241 252 202 7 61 276 27 37 257 306 342 244 234 278 22 9 90 90 81 107 99 91 85 97 116 126 146 183 219 185 208
149 148 149 154 156 168 166 157 131 152 83 102 144 124 179 195 238 204 212 226 249 250 338 236 284 157 196 133 176 132 264 31 288 281 257 290 333 28 89 351 101 82 87 100 108 116 134 143 144 124 92 70 137 248
145 142 132 131 123 167 156 125 93 76 95 162 130 189 211 234 258 240 240 276 262 261 196 74 4 88 325 151 317 76 20 278 228 263 270 199 184 134 145 130 112 109 103 104 113 129 139 89 76 326 325 346 296 308
125 109 124 146 129 134 122 104 47 58 57 246 214 298 281 188 299 299 263 258 248 245 89 64 90 34 322 94 117 222 199 251 309 308 307 269 185 125 133 156 138 128 136 147 152 169 171 200 209 234 274 267 215 201
134 109 153 135 130 119 96 82 54 78 298 318 294 267 217 246 235 259 267 254 264 82 94 87 25 178 68 48 272 189 244 261 301 324 346 340 221 153 181 149 144 146 152 158 156 168 195 223 229 229 255 251 213 236
21 132 131 130 122 95 78 41 104 118 257 252 239 272 233 242 274 281 278 276 49 52 27 242 139 78 86 348 329 289 301 291 233 337 32 355 309 194 166 148 151 165 182 158 215 270 291 227 228 253 241 245 226 242
141 138 146 152 131 109 107 100 88 201 239 258 260 238 232 245 260 259 278 285 325 116 116 53 86 137 212 237 226 248 233 207 303 304 76 258 294 267 186 141 148 99 85 242 236 241 243 240 225 236 221 202 217 230
131 145 152 56 15 71 81 303 128 198 248 227 221 242 218 211 203 232 246 328 48 73 28 95 189 198 191 218 206 216 227 284 196 74 2 251 260 288 262 125 175 212 235 303 304 331 333 279 247 239 209 206 215 242
101 182 128 28 12 58 123 149 198 211 242 225 233 189 251 328 264 353 2 19 60 174 227 219 214 240 248 288 278 177 225 182 221 119 273 304 305 268 262 257 209 177 200 232 340 315 337 291 291 309 290 266 247 254
99 130 76 345 53 9 90 215 180 240 169 249 306 174 202 303 300 270 349 100 216 229 201 189 199 187 225 252 251 229 306 250 192 216 256 287 291 277 275 239 129 181 161 214 214 269 299 298 306 319 292 273 278 267
133 64 54 52 32 44 265 48 176 221 203 253 5 357 316 307 247 21 278 227 251 233 187 196 221 221 249 277 297 305 312 303 320 278 247 232 227 278 353 31 56 76 23 301 245 271 287 294 295 284 291 293 281 286
86 100 136 155 204 255 272 268 227 268 312 27 162 243 245 260 348 50 265 259 254 60 179 233 215 6 331 304 268 277 297 287 299 306 306 162 117 300 181 256 242 205 200 217 238 294 283 299 316 298 300 310 317 294
76 289 128 177 203 251 232 262 234 88 211 254 34 330 302 45 11 297 288 270 253 231 194 196 228 206 230 266 283 281 248 198 197 173 289 262 126 39 29 46 9 18 340 147 68 3 340 319 313 290 254 251 266 280
126 226 152 202 197 227 278 169 176 200 202 124 238 347 356 17 337 270 259 211 286 245 198 192 195 219 255 212 259 325 328 12 114 95 323 206 147 144 134 94 356 284 353 80 354 330 305 312 331 335 323 288 261 257
157 186 273 249 286 282 298 322 227 138 156 220 91 61 38 304 260 262 307 360 182 290 259 193 194 221 244 226 228 247 256 208 228 165 174 172 135 239 277 359 293 288 4 356 309 284 287 304 321 314 308 326 296 280
259 289 224 206 229 207 310 277 234 102 70 55 354 183 211 223 71 296 279 259 229 308 13 4 22 65 218 239 118 52 45 146 106 98 36 10 1 35 21 353 314 304 292 282 277 271 253 271 281 290 296 277 269 307
232 221 243 211 226 164 220 274 220 212 185 195 207 119 80 41 351 322 342 353 19 38 27 39 23 29 60 69 67 49 32 66 69 50 35 348 347 321 338 326 305 302 290 285 282 257 255 255 266 258 269 264 188 80
227 182 242 153 240 241 218 180 231 195 151 123 109 85 45 15 355 358 4 8 47 47 29 40 16 42 39 53 46 41 27 40 67 85 84 14 291 294 322 331 333 333 331 349 2 355 7 31 38 41 27 35 22 28
115 204 239 172 250 222 195 136 44 91 79 66 65 100 103 164 332 348 34 18 360 51 35 23 24 15 34 28 27 33 34 8 52 59 79 10 334 348 358 355 352 7 19 31 32 32 30 31 28 23 41 41 32 32
172 208 216 131 55 13 112 74 58 68 42 47 23 14 27 32 32 353 356 1 14 20 3 5 35 27 20 67 71 68 78 58 29 12 25 34 28 26 24 18 15 27 34 32 29 29 39 42 36 38 36 25 20 15
159 180 75 73 45 53 23 79 48 66 60 62 48 57 44 49 55 318 326 14 9 345 349 8 45 34 30 37 60 63 56 66 66 59 75 65 63 48 33 19 21 32 38 34 30 41 45 38 33 32 30 15 10 10